Bookmark and Share
Track history (hours):
 

Ocean Navigator

More information available from US FCC via Universal Licensing System and Coast Guard Vessel Documentation Center.

Last reported at 2014-Apr-14 18:31 UTC. Time now 2014-Apr-16 07:36 UTC.
Position N 47°39' W 122°22'.

MMSI: 366358000.

NotesDate/timePositionNaut miles runAvg speedWind from/ knotsBaromVisibWave heightAir tempDewpointWater temp
2014-Apr-14 18:31N 47°39' W 122°22'0 0.0
2014-Apr-14 17:33N 47°39' W 122°22'380.6
2014-Apr-14 17:31N 47°41' W 122°25'0 0.4
2014-Apr-14 16:33N 47°41' W 122°25'1110.8
2014-Apr-14 15:34N 47°51' W 122°29'9 9.0
2014-Apr-14 14:34N 47°60' W 122°35'26 8.6
2014-Apr-14 11:33N 48°24' W 122°45'1010.0
2014-Apr-14 10:34N 48°34' W 122°45'9 9.3
2014-Apr-14 09:34N 48°44' W 122°46'1110.7
2014-Apr-14 08:34N 48°50' W 122°59'1110.5
2014-Apr-14 07:34N 48°56' W 123°12'1110.9
2014-Apr-14 06:34N 49°04' W 123°24'1111.2
2014-Apr-14 05:33N 49°11' W 123°37'9312.6
2014-Apr-13 22:11N 50°14' W 125°23'6110.7
2014-Apr-13 16:31N 50°39' W 126°49'1211.1
2014-Apr-13 15:27N 50°45' W 127°06'1010.4
2014-Apr-13 14:28N 50°51' W 127°19'910.1
2014-Apr-13 13:33N 50°57' W 127°29'1010.0
2014-Apr-13 12:33N 51°04' W 127°41'2310.3
2014-Apr-13 10:18N 51°23' W 128°01'  

Dump ship's entire track history

sailing weather and tide predictions

Ocean Navigator — WSC2552 — position and weather